Tracking 35275 objects as of 8-Sep-2026
HD Live streaming from Space Station
objects crossing your sky now

SL-8 DEB

Track SL-8 DEB now!
10-day predictions


NORAD ID: 7560
Int'l Code: 1972-062D
Launch date: August 16, 1972
Source: Commonwealth of Independent States (former USSR) (CIS)
Launch site: PLESETSK MISSILE AND SPACE COMPLEX (PKMTR)

Note: This is SATELLITE DEBRIS
Your satellite tracking list
Your tracking list is empty




NASA's NSSDC Master Catalog

Two Line Element Set (TLE):
1 07560U 72062D   26249.02877047  .00000179  00000-0  93397-4 0  9995
2 07560  82.9723  99.2306 0066361  62.5347 298.2554 14.07816758650967
Source of the keplerian elements: AFSPC